Juneau, WI

4:58 PM CDT on August 23, 2017 (GMT -0500)
Dodge County

Weather History for KUNU - October, 2013

Change the Weather History Date:

Thursday, October 31, 2013

  Actual Average Record
Temperature  
Mean Temperature 52 °F -  
Max Temperature 61 °F 50 °F 71 °F (1974)
Min Temperature 42 °F 36 °F 21 °F (1993)
Degree Days  
Heating Degree Days 14    
Growing Degree Days 2 (Base 50)    
Moisture  
Dew Point 54 °F    
Average Humidity 99    
Maximum Humidity 100    
Minimum Humidity 87    
Precipitation  
Precipitation 0.91 in - - ()
Sea Level Pressure  
Sea Level Pressure 29.43 in    
Wind  
Wind Speed 8 mph (SSW)    
Max Wind Speed 20 mph    
Max Gust Speed 25 mph    
Visibility 5 miles    
Events Rain    
Averages and records for this station are not official NWS values.
T = Trace of Precipitation, MM = Missing Value Source: NWS Daily Summary

Daily Weather History Graph

Daily Weather History Graph

Search for Another Location

Airport or City:

Trip Planner

Search our weather history database for the weather conditions in past years. The results will help you decide how hot, cold, wet, or windy it might be!

Date:

Astronomy

Oct. 31, 2013 Rise Set
Actual Time 7:29 AM CDT 5:46 PM CDT
Civil Twilight 6:59 AM CDT 6:16 PM CDT
Nautical Twilight 6:25 AM CDT 6:50 PM CDT
Astronomical Twilight 5:52 AM CDT 7:23 PM CDT
Moon 4:13 AM CDT (10/31) 4:09 PM CDT (10/31)
Length of Visible Light 11h 17m
Length of Day
10h 17m
Waning Crescent, 10% of the Moon is Illuminated
Oct 31
Waning Crescent
Nov 3
New
Nov 9
First Quarter
Nov 17
Full
Nov 25
Last Quarter

Hourly Weather History & Observations

Time (CDT) Temp. Windchill Dew Point Humidity Pressure Visibility Wind Dir Wind Speed Gust Speed Precip Events Conditions
12:15 AM 51.3 °F - 51.3 °F 100% 29.76 in 0.8 mi ESE 3.5 mph - N/A   Overcast
12:35 AM 51.8 °F - 51.8 °F 100% 29.73 in 1.0 mi East 6.9 mph - N/A   Overcast
12:55 AM 51.8 °F - 51.8 °F 100% 29.72 in 1.0 mi ESE 5.8 mph - N/A   Overcast
1:15 AM 51.8 °F - 51.8 °F 100% 29.70 in 1.0 mi ESE 4.6 mph - N/A   Overcast
1:35 AM 51.8 °F - 51.8 °F 100% 29.69 in 1.2 mi ESE 5.8 mph - N/A   Overcast
1:55 AM 52.3 °F - 52.3 °F 100% 29.68 in 1.5 mi ESE 5.8 mph - N/A   Overcast
2:15 AM 52.7 °F - 52.7 °F 100% 29.67 in 1.8 mi ESE 5.8 mph - N/A   Overcast
2:35 AM 52.7 °F - 52.7 °F 100% 29.66 in 1.8 mi SE 5.8 mph - N/A   Overcast
2:55 AM 53.2 °F - 53.2 °F 100% 29.64 in 1.8 mi SE 9.2 mph - N/A   Overcast
3:15 AM 53.8 °F - 53.8 °F 100% 29.63 in 2.0 mi SE 8.1 mph - N/A   Overcast
3:35 AM 54.5 °F - 54.5 °F 100% 29.62 in 2.0 mi SSE 4.6 mph - N/A   Overcast
3:55 AM 54.5 °F - 54.5 °F 100% 29.61 in 1.8 mi SSE 3.5 mph - N/A   Overcast
4:15 AM 55.4 °F - 55.4 °F 100% 29.60 in 2.0 mi SSE 5.8 mph - N/A   Overcast
4:35 AM 55.6 °F - 55.6 °F 100% 29.59 in 2.0 mi SE 5.8 mph - N/A   Overcast
4:55 AM 55.8 °F - 55.8 °F 100% 29.59 in 2.5 mi SE 9.2 mph - N/A   Overcast
5:15 AM 55.8 °F - 55.8 °F 100% 29.58 in 2.0 mi SE 8.1 mph - N/A   Overcast
5:35 AM 56.3 °F - 56.3 °F 100% 29.57 in 2.5 mi SE 9.2 mph - N/A   Overcast
5:55 AM 56.8 °F - 56.8 °F 100% 29.57 in 3.0 mi SSE 10.4 mph - N/A   Overcast
6:15 AM 57.9 °F - 57.9 °F 100% 29.56 in 2.5 mi SSE 12.7 mph - N/A   Overcast
6:35 AM 58.3 °F - 58.3 °F 100% 29.56 in 3.0 mi South 12.7 mph - 0.02 in Rain Heavy Rain
6:55 AM 58.5 °F - 58.5 °F 100% 29.55 in 2.5 mi South 10.4 mph - 0.15 in Rain Rain
7:15 AM 58.5 °F - 58.5 °F 100% 29.54 in 3.0 mi SSE 10.4 mph - 0.01 in Rain Heavy Rain
7:35 AM 58.8 °F - 58.8 °F 100% 29.52 in 3.0 mi SSE 9.2 mph - 0.07 in Rain Light Rain
7:55 AM 59.0 °F - 59.0 °F 100% 29.52 in 7.0 mi South 10.4 mph - 0.08 in Rain Light Rain
8:15 AM 59.2 °F - 59.2 °F 100% 29.52 in 3.0 mi South 10.4 mph - 0.04 in Rain Heavy Rain
8:35 AM 59.4 °F - 59.4 °F 100% 29.52 in 5.0 mi South 10.4 mph - 0.05 in   Heavy Drizzle
8:55 AM 59.5 °F - 59.5 °F 100% 29.51 in 3.0 mi South 8.1 mph - 0.12 in Rain Rain
9:15 AM 59.9 °F - 59.9 °F 100% 29.50 in 5.0 mi South 9.2 mph - 0.01 in Rain Heavy Rain
9:35 AM 60.1 °F - 60.1 °F 100% 29.48 in 2.0 mi South 12.7 mph 18.4 mph 0.02 in Rain Light Rain
9:55 AM 60.4 °F - 60.4 °F 100% 29.48 in 3.0 mi South 11.5 mph - 0.03 in   Light Drizzle
10:15 AM 60.4 °F - 60.4 °F 100% 29.47 in 2.5 mi South 11.5 mph - N/A Rain Rain
10:35 AM 60.6 °F - 60.6 °F 100% 29.45 in 3.0 mi South 11.5 mph - N/A   Light Drizzle
10:55 AM 60.4 °F - 60.4 °F 100% 29.45 in 4.0 mi South 11.5 mph - N/A   Overcast
11:15 AM 60.8 °F - 60.8 °F 100% 29.44 in 7.0 mi South 12.7 mph - N/A   Overcast
11:35 AM 60.6 °F - 60.6 °F 100% 29.42 in 1.5 mi SSW 11.5 mph 17.3 mph N/A Rain Heavy Rain
11:55 AM 60.8 °F - 60.8 °F 100% 29.41 in 2.0 mi South 11.5 mph - N/A   Drizzle
12:15 PM 60.8 °F - 60.8 °F 100% 29.40 in 2.0 mi SSW 11.5 mph - N/A   Drizzle
12:35 PM 60.8 °F - 60.8 °F 100% 29.39 in 4.0 mi South 11.5 mph - 0.02 in Rain Light Rain
12:55 PM 61.0 °F - 61.0 °F 100% 29.37 in 7.0 mi SSW 11.5 mph - 0.02 in   Overcast
1:15 PM 60.8 °F - 60.8 °F 100% 29.37 in 4.0 mi SW 10.4 mph - 0.01 in Rain Rain
1:35 PM 60.4 °F - 60.4 °F 100% 29.35 in 7.0 mi WSW 10.4 mph - 0.02 in Rain Rain
1:55 PM 60.3 °F - 60.3 °F 100% 29.33 in 10.0 mi SW 5.8 mph - 0.03 in Rain Light Rain
2:15 PM 59.9 °F - 59.9 °F 100% 29.32 in 10.0 mi SW 4.6 mph - 0.01 in Rain Light Rain
2:35 PM 59.0 °F - 59.0 °F 100% 29.32 in 5.0 mi WSW 4.6 mph - 0.04 in Rain Rain
2:55 PM 58.6 °F - 58.6 °F 100% 29.31 in 4.0 mi West 3.5 mph - 0.15 in Rain Heavy Rain
3:15 PM 58.3 °F - 58.3 °F 100% 29.30 in 2.5 mi West 4.6 mph - 0.10 in Rain Heavy Rain
3:35 PM 57.9 °F - 57.9 °F 100% 29.30 in 5.0 mi West 4.6 mph - 0.16 in Rain Light Rain
3:55 PM 57.7 °F - 57.7 °F 100% 29.29 in 10.0 mi West 4.6 mph - 0.17 in Rain Light Rain
4:15 PM 57.2 °F - 57.2 °F 100% 29.28 in 7.0 mi WNW 4.6 mph - 0.01 in Rain Light Rain
4:35 PM 56.7 °F - 56.7 °F 100% 29.28 in 7.0 mi West 4.6 mph - 0.03 in Rain Light Rain
4:55 PM 56.7 °F - 56.7 °F 100% 29.27 in 5.0 mi WNW 3.5 mph - 0.04 in Rain Rain
5:15 PM 56.3 °F - 56.3 °F 100% 29.26 in 7.0 mi WNW 5.8 mph - 0.01 in Rain Light Rain
5:35 PM 55.8 °F - 55.8 °F 100% 29.26 in 10.0 mi WNW 5.8 mph - 0.03 in Rain Light Rain
5:55 PM 55.0 °F - 55.0 °F 100% 29.25 in 5.0 mi NW 12.7 mph 21.9 mph 0.06 in Rain Heavy Rain
6:15 PM 54.5 °F - 54.5 °F 100% 29.26 in 10.0 mi WNW 8.1 mph 19.6 mph 0.01 in Rain Light Rain
6:35 PM 53.6 °F - 53.4 °F 99% 29.27 in 10.0 mi West 10.4 mph 18.4 mph 0.02 in Rain Rain
6:55 PM 52.2 °F - 51.3 °F 97% 29.28 in 5.0 mi West 10.4 mph 21.9 mph 0.04 in Rain Rain
7:15 PM 50.9 °F - 50.0 °F 97% 29.27 in 7.0 mi WNW 8.1 mph 18.4 mph 0.02 in Rain Rain
7:35 PM 50.2 °F - 49.5 °F 97% 29.27 in 10.0 mi West 8.1 mph 17.3 mph 0.02 in Rain Rain
7:55 PM 49.5 °F - 48.7 °F 97% 29.26 in 10.0 mi WNW 10.4 mph 18.4 mph 0.02 in   Light Drizzle
8:15 PM 48.6 °F - 47.8 °F 97% 29.28 in 10.0 mi West 10.4 mph - N/A   Overcast
8:35 PM 47.3 °F - 46.4 °F 97% 29.27 in 10.0 mi West 11.5 mph 17.3 mph N/A   Overcast
8:55 PM 46.2 °F 39.8 °F 45.5 °F 97% 29.27 in 7.0 mi West 15.0 mph 23.0 mph N/A   Overcast
9:15 PM 45.5 °F 39.6 °F 45.0 °F 98% 29.27 in 7.0 mi West 12.7 mph 23.0 mph N/A   Overcast
9:35 PM 44.6 °F 37.4 °F 44.4 °F 99% 29.27 in 5.0 mi WSW 16.1 mph 21.9 mph N/A   Drizzle
9:55 PM 44.6 °F 38.8 °F 43.7 °F 97% 29.27 in 7.0 mi West 11.5 mph 25.3 mph N/A   Overcast
10:15 PM 44.1 °F 37.7 °F 43.0 °F 96% 29.28 in 7.0 mi West 12.7 mph 20.7 mph N/A   Overcast
10:35 PM 43.9 °F 36.2 °F 41.9 °F 93% 29.29 in 10.0 mi WSW 17.3 mph 24.2 mph N/A   Overcast
10:55 PM 43.2 °F 37.0 °F 41.0 °F 92% 29.29 in 7.0 mi West 11.5 mph 21.9 mph N/A   Overcast
11:15 PM 42.8 °F 35.1 °F 39.9 °F 90% 29.30 in 7.0 mi WSW 16.1 mph 20.7 mph N/A   Overcast
11:35 PM 42.8 °F 34.3 °F 40.1 °F 90% 29.30 in 7.0 mi WSW 19.6 mph 25.3 mph N/A   Overcast
11:55 PM 42.8 °F 35.8 °F 39.2 °F 87% 29.30 in 10.0 mi West 13.8 mph 21.9 mph N/A   Overcast